Regional Weather Roundup
Issued by NWS Newport/Morehead, NC

Current Version | Previous Version | Text Only | Print | Product List | Glossary On
Versions: 1 2 3 4 5 6 7 8 9 10 11 12 13 14 15 16 17 18 19 20 21 22 23 24 25 26 27 28 29 30 31 32 33 34 35 36 37 38 39 40 41 42 43 44 45 46 47 48 49 50
000 ASUS42 KMHX 231413 RWRMHX WEATHER ROUNDUP FOR EASTERN NORTH CAROLINA NATIONAL WEATHER SERVICE NEWPORT/MOREHEAD CITY NC 1000 AM EDT TUE MAY 23 2017 NOTE: "FAIR" INDICATES FEW OR NO CLOUDS BELOW 12,000 FEET WITH NO SIGNIFICANT WEATHER AND/OR OBSTRUCTIONS TO VISIBILITY NCZ015>017-031-032-045>047-102-103-231500- NORTH COAST CITY SKY/WX TMP DP RH WIND PRES REMARKS EDENTON RAIN 70 68 92 E8 29.89S ELIZABETH CITY HVY RAIN 66 66 100 E14 29.91R FOG KITTY HAWK NOT AVBL MANTEO RAIN 65 65 98 E9 29.90F $$ NCZ045>047-081-094-103-104-231500- CENTRAL COAST CITY SKY/WX TMP DP RH WIND PRES REMARKS FRISCO NOT AVBL $$ NCZ095-097-098-100-101-231500- SOUTHERN COAST CITY SKY/WX TMP DP RH WIND PRES REMARKS BEAUFORT LGT RAIN 74 72 93 S10 29.87F CEDAR ISLAND NOT AVBL JACKSONVILLE CLOUDY 75 73 93 S8 29.84F PINEY ISLAND LGT RAIN N/A N/A N/A S8 29.87 WILMINGTON CLOUDY 74 71 91 S10 29.84F $$ NCZ011>013-027>030-043-044-078>080-089-090>093-098-231500- COASTAL PLAIN CITY SKY/WX TMP DP RH WIND PRES REMARKS AHOSKIE RAIN 66 66 98 NE3 29.89F CLINTON CLOUDY 71 71 100 S3 29.84F ELIZABETHTOWN CLOUDY 73 72 95 S5 29.84F GOLDSBORO CLOUDY 67 67 100 NE10 29.83F GREENVILLE LGT RAIN 68 68 100 E7 29.89F HAVELOCK LGT RAIN 73 70 90 S3 29.87F FOG KENANSVILLE NOT AVBL KINSTON LGT RAIN 70 70 100 CALM 29.86F NEW BERN LGT RAIN 72 71 97 S7 29.87F FOG RICHLANDS CLOUDY 74 72 93 S8 29.85F ROCKY MOUNT RAIN 68 68 100 NE5 29.86F FOG WASHINGTON RAIN 67 67 99 E5 29.88F WHITEVILLE CLOUDY 74 70 87 SW7 29.84S $$ AMZ130-135-150-152-154-156-158-170-250-252-270-ANZ085-086-088-633-658-670-231500- MARINE OBSERVATIONS STATION/POSITION TIME TEMP WIND PRES WAVE SWELL AIR SEA DIR/SP/G HT/PER HT/PER (UTC) (F) (DEG/KT/KT) (MB) (FT/S) (FT/S) CHESAPEAKE LIGHT NOT AVBL 64 E VA BEACH 1350 65 64 50/ 14/ 16 1013.4 4/ 6 2/ 7 DUCK 1348 64 65 70/ 15/ 19 1012.4 2 E DUCK 1400 65 N/A 3/ 7 OREGON INLET 1342 66 72 60/ 12/ 15 1011.9 13E OREGON INLT 1348 66 N/A 4/ 6 3/ 6 HATTERAS CG 1348 72 75 230/ 10/ 14 1012.1 DIAMOND BUOY 1350 74 77 240/ 16/ 17 1012.0 4/ 5 2/ 8 CAPE LOOKOUT 1400 71 200/ 11/ 13 1011.3 BEAUFORT LAB 1348 74 73 200/ 12/ 18 1010.7 30 SE NEW RVR IN 1308 74 76 190/ 16/ 21 1011.7 30 SE NEW RVR IN 1343 76 N/A 4/ 5 27 SE WRIGHTSVLE 1308 74 75 190/ 17/ 23 1011.0 5 SE WRIGHTSVLE 1308 74 75 180/ 8/ 14 1010.9 225 S CAPE HAT 1350 76 76 190/ 19/ 21 1015.5 4/ 5 2/ 8 41 SE CHARLESTON 1350 77 77 230/ 17/ 21 1011.3 6/ 6 2/12 $$

USA.gov is the U.S. government's official web portal to all federal, state and local government web resources and services.